Regional Weather Roundup
Issued by NWS

Home | Current Version | Previous Version | Text Only | Print | Product List | Glossary Off
Versions: 1 2 3 4 5 6 7 8 9 10 11 12 13 14 15 16 17 18 19 20 21 22 23 24 25 26 27 28 29 30 31 32 33 34 35 36 37 38 39 40 41 42 43 44 45 46 47 48 49 50

000
ASUS43 KBIS 190302
RWRND

NORTH DAKOTA REGIONAL WEATHER ROUNDUP
NATIONAL WEATHER SERVICE BISMARCK ND
900 PM CST SAT FEB 18 2017

NOTE: "FAIR" INDICATES FEW OR NO CLOUDS BELOW 12,000 FEET WITH NO
SIGNIFICANT WEATHER AND/OR OBSTRUCTIONS TO VISIBILITY.


NDZ001>003-009>011-017-190400-
NORTHWEST NORTH DAKOTA

CITY           SKY/WX    TMP DP  RH WIND       PRES   REMARKS
WILLISTON      FAIR      34  31  88 NE7       29.69R
MINOT          CLOUDY    34  32  92 E3        29.73S
$$

NDZ018>021-031>035-040>046-190400-
SOUTHWEST NORTH DAKOTA

CITY           SKY/WX    TMP DP  RH WIND       PRES   REMARKS
BISMARCK       CLOUDY    37  34  89 E8        29.68F
DICKINSON      FAIR      29  28  96 SE5       29.61R
GARRISON         N/A     35  31  85 E15       29.68S
HETTINGER ARPT CLEAR     35  30  82 NE5       29.62R
$$

NDZ004>008-012>016-024-026-027-054-190400-
NORTHEAST NORTH DAKOTA

CITY           SKY/WX    TMP DP  RH WIND       PRES   REMARKS
GRAND FORKS    CLOUDY    36  30  79 CALM      29.81R
GRND FRKS AFB  CLOUDY    33  31  92 CALM      29.81S
DEVILS LAKE    CLOUDY    34  32  92 NE3       29.77S
$$

NDZ022-023-025-028>030-036>039-047>053-190400-
SOUTHEAST NORTH DAKOTA

CITY           SKY/WX    TMP DP  RH WIND       PRES   REMARKS
FARGO          CLOUDY    36  35  96 E7        29.79S
JAMESTOWN      FAIR      33  32  96 E6        29.74S
$$





USA.gov is the U.S. government's official web portal to all federal, state and local government web resources and services.